Weather History for KNMM - July, 2014

Change the Weather History Date:

Tuesday, July 29, 2014

  Actual Average Record
Temperature  
Mean Temperature 75 °F -  
Max Temperature 87 °F 89 °F 99 °F (1999)
Min Temperature 66 °F 69 °F 66 °F (2004)
Cooling Degree Days 10    
Growing Degree Days 25 (Base 50)    
Moisture  
Dew Point 62 °F    
Average Humidity 65    
Maximum Humidity 90    
Minimum Humidity 47    
Precipitation  
Precipitation 0.00 in - - ()
Sea Level Pressure  
Sea Level Pressure 30.07 in    
Wind  
Wind Speed 5 mph (NNW)    
Max Wind Speed 13 mph    
Max Gust Speed -    
Visibility 10 miles    
Events      
Averages and records for this station are not official NWS values.
T = Trace of Precipitation, MM = Missing Value Source: NWS Daily Summary

Daily Weather History Graph

Daily Weather History Graph

Search for Another Location

Airport or City:

Trip Planner

Search our weather history database for the weather conditions in past years. The results will help you decide how hot, cold, wet, or windy it might be!

Date:

Astronomy

Jul. 29, 2014 Rise Set
Actual Time 6:06 AM CDT 7:54 PM CDT
Civil Twilight 5:39 AM CDT 8:21 PM CDT
Nautical Twilight 5:06 AM CDT 8:53 PM CDT
Astronomical Twilight 4:32 AM CDT 9:28 PM CDT
Moon 8:31 AM CDT (7/29) 9:19 PM CDT (7/29)
Length of Visible Light 14h 41m
Length of Day
13h 48m
Waxing Crescent, 7% of the Moon is Illuminated
Jul 29
Waxing Crescent
Aug 3
First Quarter
Aug 10
Full
Aug 17
Last Quarter
Aug 25
New

Hourly Weather History & Observations

Time (CDT) Temp. Heat Index Dew Point Humidity Pressure Visibility Wind Dir Wind Speed Gust Speed Precip Events Conditions
12:30 AM 71.1 °F - 64.0 °F 78% 30.03 in 10.0 mi NNW 4.6 mph - N/A   Partly Cloudy
12:56 AM 71.1 °F - 64.0 °F 78% 30.04 in 10.0 mi NW 3.5 mph - N/A   Clear
1:56 AM 70.0 °F - 64.0 °F 81% 30.04 in 10.0 mi NW 4.6 mph - N/A   Clear
2:56 AM 68.0 °F - 64.0 °F 87% 30.03 in 10.0 mi NW 3.5 mph - N/A   Clear
3:56 AM 66.0 °F - 63.0 °F 90% 30.03 in 10.0 mi NW 3.5 mph - N/A   Clear
4:56 AM 66.0 °F - 63.0 °F 90% 30.03 in 10.0 mi NW 3.5 mph - N/A   Clear
5:56 AM 66.0 °F - 62.1 °F 87% 30.04 in 10.0 mi NW 3.5 mph - N/A   Clear
6:56 AM 66.9 °F - 63.0 °F 87% 30.08 in 10.0 mi NNW 3.5 mph - N/A   Partly Cloudy
7:56 AM 72.0 °F - 64.9 °F 78% 30.10 in 10.0 mi Calm Calm - N/A   Partly Cloudy
8:56 AM 77.0 °F - 64.0 °F 64% 30.11 in 10.0 mi NNW 5.8 mph - N/A   Clear
9:56 AM 81.0 °F 82.5 °F 64.0 °F 56% 30.10 in 10.0 mi North 8.1 mph - N/A   Partly Cloudy
10:56 AM 82.9 °F 84.0 °F 63.0 °F 51% 30.10 in 10.0 mi Variable 5.8 mph - N/A   Scattered Clouds
11:56 AM 82.9 °F 83.3 °F 61.0 °F 47% 30.09 in 10.0 mi North 6.9 mph - N/A   Mostly Cloudy
12:56 PM 84.0 °F 84.5 °F 62.1 °F 47% 30.08 in 10.0 mi North 8.1 mph - N/A   Mostly Cloudy
1:56 PM 84.9 °F 86.1 °F 64.0 °F 49% 30.07 in 10.0 mi North 8.1 mph - N/A   Scattered Clouds
2:56 PM 84.9 °F 85.9 °F 63.0 °F 48% 30.06 in 10.0 mi North 11.5 mph - N/A   Mostly Cloudy
3:56 PM 84.9 °F 85.9 °F 63.0 °F 48% 30.06 in 10.0 mi North 9.2 mph - N/A   Mostly Cloudy
4:56 PM 84.9 °F 85.9 °F 63.0 °F 48% 30.06 in 10.0 mi North 10.4 mph - N/A   Scattered Clouds
5:56 PM 82.0 °F 83.0 °F 62.1 °F 51% 30.06 in 10.0 mi North 10.4 mph - N/A   Partly Cloudy
6:56 PM 80.1 °F 80.6 °F 57.9 °F 47% 30.06 in 10.0 mi North 12.7 mph - N/A   Clear
7:56 PM 75.9 °F - 57.0 °F 52% 30.08 in 10.0 mi North 6.9 mph - N/A   Clear
8:56 PM 73.0 °F - 57.0 °F 57% 30.08 in 10.0 mi North 6.9 mph - N/A   Clear
9:56 PM 70.0 °F - 57.0 °F 63% 30.09 in 10.0 mi North 4.6 mph - N/A   Clear
10:56 PM 68.0 °F - 55.9 °F 65% 30.10 in 10.0 mi North 4.6 mph - N/A   Clear
11:56 PM 66.9 °F - 55.9 °F 68% 30.11 in 10.0 mi North 4.6 mph - N/A   Clear